TimeCST,TemperatureF,Dew PointF,Humidity,Sea Level PressureIn,VisibilityMPH,Wind Direction,Wind SpeedMPH,Gust SpeedMPH,PrecipitationIn,Events,Conditions,WindDirDegrees,DateUTC
12:15 AM,31.6,30.2,94,29.85,4.0,WNW,4.6,-,N/A,Rain,Freezing Rain,290,2013-12-21 06:15:00
12:35 AM,31.8,30.6,95,29.87,4.0,WSW,5.8,-,N/A,,Freezing Rain,250,2013-12-21 06:35:00
12:55 AM,32.0,30.2,93,29.88,5.0,West,5.8,-,N/A,Rain,Rain,280,2013-12-21 06:55:00
1:15 AM,31.8,30.2,94,29.86,5.0,WNW,5.8,-,N/A,Rain,Freezing Rain,290,2013-12-21 07:15:00
1:35 AM,31.8,30.2,94,29.83,5.0,North,8.1,-,N/A,Rain,Freezing Rain,350,2013-12-21 07:35:00
1:55 AM,31.6,30.0,94,29.81,7.0,North,9.2,-,N/A,,Freezing Rain,350,2013-12-21 07:55:00
2:15 AM,31.6,29.8,93,29.83,7.0,NNW,5.8,-,N/A,Rain,Freezing Rain,330,2013-12-21 08:15:00
2:35 AM,31.5,29.7,93,29.83,7.0,North,5.8,-,N/A,Rain,Freezing Rain,350,2013-12-21 08:35:00
2:55 AM,31.3,29.5,93,29.83,5.0,NNE,5.8,-,N/A,Rain,Freezing Rain,20,2013-12-21 08:55:00
3:15 AM,31.1,29.3,93,29.80,7.0,North,5.8,-,N/A,Rain,Freezing Rain,10,2013-12-21 09:15:00
3:35 AM,30.9,29.1,93,29.82,10.0,NE,3.5,-,N/A,,Overcast,40,2013-12-21 09:35:00
3:55 AM,31.1,29.1,92,29.81,10.0,East,4.6,-,N/A,,Freezing Rain,80,2013-12-21 09:55:00
4:15 AM,31.1,29.1,92,29.84,10.0,NW,3.5,-,N/A,,Overcast,320,2013-12-21 10:15:00
4:35 AM,31.1,29.3,93,29.82,10.0,North,5.8,-,N/A,,Overcast,350,2013-12-21 10:35:00
4:55 AM,31.1,29.1,92,29.83,10.0,NNW,6.9,-,N/A,,Overcast,340,2013-12-21 10:55:00
5:15 AM,31.1,29.3,93,29.82,7.0,North,10.4,-,0.01,Rain,Freezing Rain,350,2013-12-21 11:15:00
5:35 AM,31.1,29.1,92,29.80,7.0,North,4.6,-,0.01,Rain,Freezing Rain,10,2013-12-21 11:35:00
5:55 AM,31.1,29.3,93,29.80,7.0,North,6.9,-,0.01,Rain,Freezing Rain,360,2013-12-21 11:55:00
6:15 AM,30.9,28.9,92,29.80,5.0,North,5.8,-,N/A,Rain,Freezing Rain,360,2013-12-21 12:15:00
6:35 AM,30.6,28.4,92,29.80,7.0,North,4.6,-,N/A,,Mostly Cloudy,10,2013-12-21 12:35:00
6:55 AM,30.6,28.0,90,29.80,7.0,North,5.8,-,N/A,,Mostly Cloudy,10,2013-12-21 12:55:00
7:15 AM,30.6,28.2,91,29.82,7.0,Calm,Calm,-,N/A,,Overcast,0,2013-12-21 13:15:00
7:35 AM,30.4,28.0,91,29.84,7.0,NW,5.8,-,N/A,,Overcast,320,2013-12-21 13:35:00
7:55 AM,30.2,28.0,92,29.83,5.0,Calm,Calm,-,N/A,,Overcast,0,2013-12-21 13:55:00
8:15 AM,30.4,28.2,92,29.83,5.0,NNW,3.5,-,N/A,Rain,Freezing Rain,340,2013-12-21 14:15:00
8:35 AM,30.4,28.4,92,29.83,4.0,NNE,3.5,-,N/A,Rain,Freezing Rain,30,2013-12-21 14:35:00
8:55 AM,30.7,28.8,92,29.83,4.0,Calm,Calm,-,0.01,Rain,Freezing Rain,0,2013-12-21 14:55:00
9:15 AM,30.7,28.8,92,29.83,4.0,Calm,Calm,-,0.01,Rain,Freezing Rain,0,2013-12-21 15:15:00
9:35 AM,30.9,28.9,92,29.83,5.0,North,3.5,-,0.01,Rain,Freezing Rain,360,2013-12-21 15:35:00
9:55 AM,30.9,28.9,92,29.83,5.0,North,6.9,-,0.01,Rain,Freezing Rain,360,2013-12-21 15:55:00
10:15 AM,30.6,28.4,92,29.82,5.0,North,6.9,-,N/A,,Freezing Rain,360,2013-12-21 16:15:00
10:35 AM,30.6,28.4,92,29.82,5.0,North,5.8,-,N/A,,Freezing Rain,360,2013-12-21 16:35:00
10:55 AM,30.6,28.4,92,29.84,5.0,North,5.8,-,N/A,,Freezing Rain,350,2013-12-21 16:55:00
11:15 AM,30.7,28.4,91,29.83,5.0,NNW,8.1,-,N/A,Rain,Freezing Rain,340,2013-12-21 17:15:00
11:35 AM,30.9,28.6,91,29.83,4.0,North,6.9,-,N/A,Rain,Freezing Rain,350,2013-12-21 17:35:00
11:55 AM,30.9,28.9,92,29.80,3.0,North,6.9,-,0.02,Rain,Freezing Rain,10,2013-12-21 17:55:00
12:15 PM,30.9,29.1,93,29.77,4.0,NNE,5.8,-,0.01,Rain,Freezing Rain,30,2013-12-21 18:15:00
12:35 PM,30.9,29.3,94,29.76,4.0,NNE,6.9,-,0.01,Rain,Freezing Rain,20,2013-12-21 18:35:00
12:55 PM,31.1,29.3,93,29.73,4.0,NNE,6.9,-,0.02,Rain,Freezing Rain,20,2013-12-21 18:55:00
1:15 PM,31.1,29.3,93,29.73,4.0,North,5.8,-,N/A,,Freezing Rain,10,2013-12-21 19:15:00
1:35 PM,31.1,29.3,93,29.73,4.0,North,8.1,-,N/A,Rain,Freezing Rain,10,2013-12-21 19:35:00
1:55 PM,31.5,29.7,93,29.71,4.0,North,6.9,-,N/A,Rain,Freezing Rain,10,2013-12-21 19:55:00
2:15 PM,31.6,30.0,94,29.72,4.0,North,5.8,-,N/A,Rain,Freezing Rain,10,2013-12-21 20:15:00
2:35 PM,31.6,29.8,93,29.74,4.0,North,5.8,-,N/A,Rain,Freezing Rain,360,2013-12-21 20:35:00
2:55 PM,31.8,30.0,93,29.74,4.0,North,8.1,-,0.02,Rain,Freezing Rain,360,2013-12-21 20:55:00
3:15 PM,32.0,30.2,93,29.72,4.0,North,8.1,-,0.01,Rain,Rain,10,2013-12-21 21:15:00
3:35 PM,31.8,30.0,93,29.70,5.0,North,10.4,-,0.02,Rain,Freezing Rain,360,2013-12-21 21:35:00
3:55 PM,31.8,30.0,93,29.70,7.0,North,9.2,-,0.02,,Freezing Rain,360,2013-12-21 21:55:00
4:15 PM,31.6,29.7,92,29.71,10.0,North,8.1,-,N/A,Rain,Freezing Rain,360,2013-12-21 22:15:00
4:35 PM,31.8,29.8,92,29.71,7.0,North,4.6,-,N/A,Rain,Freezing Rain,10,2013-12-21 22:35:00
4:55 PM,32.0,30.0,92,29.71,7.0,NNE,5.8,-,N/A,Rain,Light Rain,20,2013-12-21 22:55:00
5:15 PM,31.8,29.8,92,29.70,7.0,NNE,6.9,-,N/A,Rain,Freezing Rain,20,2013-12-21 23:15:00
5:35 PM,31.8,30.0,93,29.70,7.0,North,6.9,-,N/A,Rain,Freezing Rain,10,2013-12-21 23:35:00
5:55 PM,32.0,30.2,93,29.69,7.0,North,6.9,-,N/A,Rain,Light Rain,360,2013-12-21 23:55:00
6:15 PM,31.8,30.0,93,29.69,5.0,North,8.1,-,N/A,,Freezing Rain,360,2013-12-22 00:15:00
6:35 PM,31.8,30.0,93,29.68,5.0,North,6.9,-,N/A,,Overcast,350,2013-12-22 00:35:00
6:55 PM,31.8,30.0,93,29.69,5.0,North,4.6,-,N/A,,Overcast,360,2013-12-22 00:55:00
7:15 PM,31.8,30.2,94,29.67,5.0,North,6.9,-,N/A,,Freezing Rain,10,2013-12-22 01:15:00
7:35 PM,31.8,30.2,94,29.67,4.0,North,6.9,-,N/A,Rain,Freezing Rain,350,2013-12-22 01:35:00
7:55 PM,31.8,30.2,94,29.65,4.0,North,8.1,-,N/A,Rain,Freezing Rain,360,2013-12-22 01:55:00
8:15 PM,31.8,30.2,94,29.65,5.0,North,8.1,-,N/A,,Overcast,350,2013-12-22 02:15:00
8:35 PM,31.8,30.2,94,29.65,5.0,North,5.8,-,N/A,,Overcast,360,2013-12-22 02:35:00
8:55 PM,31.8,30.2,94,29.62,2.5,North,4.6,-,N/A,,Freezing Rain,10,2013-12-22 02:55:00
9:15 PM,32.0,30.6,94,29.60,3.0,North,5.8,-,N/A,,Light Drizzle,10,2013-12-22 03:15:00
9:35 PM,32.0,30.9,96,29.62,3.0,North,6.9,-,N/A,,Light Drizzle,10,2013-12-22 03:35:00
9:55 PM,32.0,30.9,96,29.60,3.0,North,6.9,-,N/A,,Overcast,360,2013-12-22 03:55:00
10:15 PM,32.0,31.1,96,29.64,3.0,North,5.8,-,N/A,,Overcast,350,2013-12-22 04:15:00
10:35 PM,32.0,31.1,96,29.66,3.0,NW,4.6,-,N/A,,Overcast,320,2013-12-22 04:35:00
10:55 PM,32.0,31.1,96,29.66,2.5,Calm,Calm,-,N/A,,Drizzle,0,2013-12-22 04:55:00
11:15 PM,32.2,31.5,97,29.64,2.0,North,3.5,-,N/A,,Drizzle,350,2013-12-22 05:15:00
11:35 PM,32.2,31.5,97,29.64,3.0,Calm,Calm,-,N/A,,Light Drizzle,0,2013-12-22 05:35:00
11:55 PM,32.2,31.6,98,29.65,3.0,NW,3.5,-,N/A,,Overcast,310,2013-12-22 05:55:00